Regional Weather Roundup
Issued by NWS

Home | Current Version | Previous Version | Graphics & Text | Print | Product List | Glossary On
Versions: 1 2 3 4 5 6 7 8 9 10 11 12 13 14 15 16 17 18 19 20 21 22 23 24 25 26 27 28 29 30 31 32 33 34 35 36 37 38 39 40 41 42 43 44 45 46 47 48 49 50
000
ASUS45 KCYS 291910
RWRWY

WYOMING REGIONAL WEATHER ROUNDUP
NATIONAL WEATHER SERVICE CHEYENNE WY
100 PM MDT MON SEP 29 2014

NOTE:  "FAIR" INDICATES FEW OR NO CLOUDS BELOW 12,000 FEET
WITH NO SIGNIFICANT WEATHER AND/OR OBSTRUCTIONS TO VISIBILITY.

WYZ001-292000-
YELLOWSTONE NATIONAL PARK

CITY           SKY/WX    TMP DP  RH WIND       PRES   REMARKS
LK YELLOWSTONE   N/A     47  38  71 CALM      30.02F
W YELLOWSTONE  NOT AVBL

$$
WYZ002>013-054>058-071-098>099-292000-
NORTHERN WYOMING

CITY           SKY/WX    TMP DP  RH WIND       PRES   REMARKS
JACKSON        CLOUDY    46  43  87 S15       30.01F
CODY           CLOUDY    54  46  76 SE7       29.93F
GREYBULL       MOSUNNY   59  49  69 VRB6      29.92F
WORLAND        PTSUNNY   59  48  67 NW3       29.91F
SHERIDAN       CLOUDY    57  49  74 W8        29.93F
BUFFALO        PTSUNNY   55  50  83 S14       29.95F
GILLETTE       MOSUNNY   62  49  62 S18       29.96F
HULETT         CLOUDY    55  50  82 CALM      30.00
NEWCASTLE      CLOUDY    54  50  87 S10       30.02

$$
WYZ014>020-022>026-101>103-292000-
CENTRAL WYOMING

CITY           SKY/WX    TMP DP  RH WIND       PRES   REMARKS
BIG PINEY      LGT RAIN  49  40  71 W6        30.03F
PINEDALE       CLOUDY    50  37  62 S8        30.04F
DUBOIS         DRIZZLE   45  39  81 SE5       29.99F
LANDER         MOSUNNY   58  45  62 N5        29.93F
RIVERTON       MOSUNNY   59  45  59 CALM      29.95F
CASPER         CLOUDY    56  47  71 VRB5      29.99F
DOUGLAS        MOSUNNY   66  48  52 E13       29.98F

$$
WYZ021-027>030-104>119-292000-
SOUTHERN WYOMING

CITY           SKY/WX    TMP DP  RH WIND       PRES   REMARKS
EVANSTON       LGT RAIN  49  39  68 W6        30.04F
KEMMERER       CLOUDY    46  37  71 SW8       30.05F
FORT BRIDGER   MOCLDY    52  40  64 NW5       30.08S THUNDER
ROCK SPRINGS   PTSUNNY   51  40  65 SW7       30.04F
DIXON          FAIR      58  39  49 W13       30.06S
RAWLINS        PTSUNNY   57  35  43 S20       30.04F
SARATOGA         N/A     59  34  38 W12       30.04F
LARAMIE        LGT RAIN  55  43  63 S13       30.05F
CHEYENNE       PTSUNNY   63  43  48 VRB6      30.02F
TORRINGTON     CLOUDY    60  53  77 SE6       29.98F
PINE BLUFFS    MOCLDY    63  48  59 E9        30.00F

$$



USA.gov is the U.S. government's official web portal to all federal, state and local government web resources and services.